Wind_Speed
74 74 75 75 75 75 75 73 73 72 73 75 76 78 80 80 81 82 82 82 83 85 87 89 90 90 89 88 87 86 85 85 84 83 82 81 81 82 82 82 82 83 83 83 84 85 85 85 84 85 85 85 84 84 84 85 86 86 87 86 85 84 84 85 85 84 82 81 80 78 77 77 76 74 74 74 73 74 73 73 72 71 70 70 71
77 77 78 78 78 78 79 79 79 79 80 80 81 82 82 83 83 83 83 84 84 85 86 88 89 90 90 90 90 89 89 88 87 86 85 84 83 83 84 84 85 85 86 87 87 88 88 87 87 87 87 87 86 86 86 86 87 87 88 88 88 87 86 87 87 86 85 85 84 82 80 79 78 76 75 75 75 75 75 75 75 74 73 72 73
80 80 80 80 81 81 81 82 83 83 84 85 86 87 88 89 89 89 89 89 89 90 91 91 92 92 92 93 93 94 94 93 92 91 91 90 90 90 90 90 90 90 90 90 90 91 91 90 90 91 91 89 88 88 88 88 89 89 88 89 89 89 89 89 89 89 88 87 86 85 84 82 79 77 77 76 76 77 77 77 77 77 76 75 74
85 85 86 86 86 86 87 87 87 88 89 90 91 92 93 94 95 96 96 96 96 96 97 97 97 97 97 98 98 98 99 100 100 100 99 99 99 99 99 98 97 96 94 93 93 94 95 94 94 94 94 93 92 91 91 91 91 91 91 91 91 91 91 91 91 91 91 90 88 88 86 84 82 80 78 77 77 77 77 77 78 78 78 77 76
90 90 90 90 90 90 90 91 91 92 93 94 94 95 96 96 97 98 98 99 99 100 101 100 100 101 101 101 100 100 101 103 104 105 106 107 107 107 107 106 105 103 101 98 97 96 97 98 98 98 98 96 95 94 94 94 95 95 94 93 93 94 94 94 93 92 92 92 91 90 88 86 84 82 80 79 78 77 77 77 78 78 79 79 78
91 91 91 92 92 92 92 93 93 94 94 95 95 96 96 97 97 98 98 99 99 100 101 101 102 102 102 102 102 102 102 103 104 105 107 109 110 111 112 112 111 110 108 107 105 104 103 102 102 103 103 102 99 97 97 98 98 98 98 98 97 96 95 95 95 94 93 92 92 92 91 89 87 84 82 80 79 79 78 78 78 79 79 80 79
91 92 93 93 94 94 94 95 95 95 96 97 98 98 99 99 100 101 101 102 102 103 103 103 104 104 104 104 104 105 105 105 105 106 107 109 110 112 113 114 115 115 115 114 113 112 110 109 108 108 108 108 106 103 102 101 102 102 102 103 103 102 100 97 96 95 94 93 93 92 92 92 90 87 84 82 81 80 80 80 79 79 78 78 78
92 93 94 94 95 96 96 97 98 98 99 100 101 102 102 103 104 105 105 106 107 107 108 108 108 108 109 109 109 109 109 109 109 110 111 112 112 113 113 114 115 116 117 117 118 117 115 114 113 112 113 113 112 111 109 107 106 106 106 106 106 107 107 104 101 99 96 95 94 94 94 93 92 90 88 86 84 81 80 79 79 78 77 76 76
92 93 94 95 96 96 97 97 98 99 99 99 100 101 101 101 102 103 104 105 106 107 107 108 109 110 110 111 111 112 113 113 113 114 115 116 116 116 116 116 116 116 116 117 117 118 118 118 117 116 115 115 116 116 115 114 112 111 110 110 110 109 109 109 108 106 103 99 97 95 95 95 94 91 90 88 85 83 81 80 79 78 78 78 78
93 93 94 94 94 94 94 93 93 93 93 93 93 93 93 93 93 94 95 95 96 98 99 100 101 103 104 106 107 108 109 110 112 114 116 117 118 119 119 118 118 118 118 118 117 117 118 119 119 119 118 118 117 117 117 117 117 116 114 114 113 113 112 111 110 109 108 106 102 99 98 97 96 94 93 90 88 86 85 83 81 80 80 80 79
93 93 93 92 91 90 89 88 86 85 85 84 84 84 84 84 84 85 85 85 86 87 88 89 91 92 94 96 98 99 100 101 103 105 108 111 113 115 117 117 117 118 118 118 119 119 119 119 120 120 120 120 120 119 119 118 118 118 118 117 116 116 115 114 112 111 110 109 107 105 103 101 99 98 97 95 93 91 89 87 85 82 81 81 79
90 89 88 87 86 84 83 81 80 79 78 77 77 77 77 77 78 78 78 79 80 80 81 83 84 85 87 88 90 91 91 92 94 96 98 101 103 106 109 111 111 112 113 113 114 115 117 118 119 120 120 121 121 122 121 121 120 119 119 119 119 119 118 116 114 112 110 110 109 107 106 105 103 102 102 101 99 97 95 92 90 87 84 82 79
83 82 81 79 78 76 75 74 74 73 73 73 73 73 74 74 75 75 76 76 77 78 79 80 81 82 83 84 84 85 85 87 88 90 91 93 95 97 100 102 103 104 105 105 106 107 108 110 112 114 115 116 118 119 121 121 121 120 120 120 120 120 119 118 117 114 112 110 109 108 107 106 105 104 104 104 104 103 100 98 95 92 89 86 81
76 74 73 71 70 70 70 70 70 71 71 71 72 73 73 74 75 76 76 77 77 77 77 78 78 79 79 80 80 79 80 81 83 84 86 87 88 90 92 94 95 96 97 97 98 99 100 101 102 104 105 106 108 111 113 115 117 118 119 119 119 119 120 119 119 118 116 113 111 109 106 105 104 104 104 105 105 104 103 101 98 97 94 91 87
68 68 67 67 68 68 69 69 69 70 71 72 73 74 75 76 76 76 76 76 75 75 74 74 74 74 75 76 75 74 75 77 78 79 80 81 82 83 84 85 85 86 86 87 88 89 90 91 93 94 96 97 99 101 103 106 109 112 114 116 116 117 117 118 118 118 118 117 115 111 107 104 103 102 102 104 105 104 103 101 100 99 98 97 95
64 65 65 66 67 67 68 69 70 71 73 74 75 75 75 75 74 74 73 72 72 72 73 73 73 73 73 74 73 71 72 73 74 75 75 76 76 77 77 77 77 77 77 78 79 80 81 82 84 86 87 89 90 92 95 98 101 104 107 109 111 113 113 114 115 115 116 117 117 115 111 107 104 102 101 102 103 103 103 102 101 100 100 99 98
62 63 64 65 66 68 69 70 72 73 74 74 74 73 72 71 71 71 70 70 71 72 72 72 72 72 71 71 70 68 68 69 69 70 70 70 71 71 71 70 70 70 70 71 73 74 75 77 79 81 82 83 84 86 88 91 94 97 99 102 105 107 109 109 109 110 112 113 114 115 114 111 108 105 103 103 103 103 103 103 102 101 99 99 98
60 62 63 65 67 69 70 71 72 72 72 72 71 70 70 69 70 70 71 71 70 70 69 68 67 67 66 64 63 61 60 60 60 60 60 60 60 60 59 59 59 59 60 61 63 65 67 69 72 75 76 78 79 82 84 87 90 92 93 96 98 101 103 104 104 104 105 107 109 111 112 112 110 109 107 106 105 105 105 104 103 101 100 99 98
60 62 64 66 68 69 70 70 70 70 69 69 69 69 69 69 70 70 69 68 67 65 64 63 61 59 58 57 55 53 52 51 50 50 49 49 49 48 48 48 48 49 51 52 55 57 60 62 66 69 71 73 75 77 80 83 87 88 89 91 93 95 95 96 97 99 100 101 103 105 107 109 109 109 109 108 107 107 107 106 104 103 102 101 98
61 63 65 66 67 68 68 68 68 67 67 67 67 68 69 69 68 67 65 64 62 60 58 57 55 53 53 52 51 50 48 46 46 46 45 45 46 45 45 45 46 47 49 51 54 56 59 62 65 69 71 73 75 76 78 80 83 85 86 88 89 89 89 91 93 94 96 97 99 100 102 104 105 107 108 108 108 108 108 107 106 104 104 103 100
62 64 65 65 66 66 65 65 66 66 66 66 67 68 68 67 65 63 61 59 56 53 52 52 51 50 49 49 48 48 47 45 45 45 45 46 47 47 47 48 49 50 51 53 56 59 61 64 66 68 71 74 76 78 80 82 84 85 85 84 84 83 85 88 90 92 93 95 96 97 99 100 102 104 105 106 107 107 108 108 107 106 105 104 103
62 63 64 64 63 63 63 64 65 66 66 67 66 66 65 63 61 59 56 52 49 47 47 48 48 47 46 46 46 47 47 46 46 46 46 47 48 49 50 51 52 53 53 55 57 59 61 62 64 66 68 70 73 76 80 83 86 87 86 84 83 82 82 84 87 89 92 94 95 95 96 97 98 100 101 102 103 104 105 106 106 106 106 105 105
62 62 62 62 62 62 63 64 65 66 66 66 66 64 62 60 57 53 49 45 43 42 43 44 44 44 45 45 45 46 46 47 47 47 47 48 49 50 51 52 54 54 54 54 55 55 56 58 60 62 64 66 69 71 74 78 82 85 86 86 85 84 83 83 83 85 88 92 94 94 94 94 95 96 97 98 98 99 100 102 103 105 106 106 106
61 61 61 61 61 62 64 65 65 65 65 65 64 62 59 56 51 47 43 41 40 39 39 39 40 41 41 42 42 44 45 46 47 48 48 48 49 51 52 53 53 54 54 54 54 54 54 55 56 58 60 63 65 67 68 71 75 78 81 83 85 86 86 85 83 82 83 86 90 92 93 92 92 93 93 92 92 93 95 97 100 102 104 106 106
61 60 60 61 62 63 63 64 64 64 64 63 61 59 56 52 45 42 40 40 39 37 37 37 38 39 38 38 38 39 41 43 44 46 47 47 49 50 51 52 52 53 54 54 55 55 55 55 56 58 60 62 63 64 64 65 68 72 75 78 81 84 85 85 84 83 82 81 83 86 89 90 90 90 89 89 89 90 91 93 95 98 100 103 104
60 60 60 61 62 62 62 63 63 62 62 61 59 57 53 46 41 39 40 39 38 37 37 37 39 39 39 38 37 37 38 40 41 42 43 44 46 47 48 50 51 53 54 55 56 56 57 57 58 60 63 65 64 62 61 61 62 65 69 72 76 79 81 82 82 82 81 80 79 80 82 84 87 88 89 89 90 90 90 90 91 93 96 98 101
59 60 60 60 60 61 61 61 61 60 59 58 56 53 49 42 39 39 40 39 38 38 38 38 41 41 40 39 38 38 39 40 41 41 42 43 44 46 47 48 50 52 53 55 56 57 57 58 60 62 65 66 66 63 61 60 59 59 62 66 70 73 75 78 79 79 78 77 77 77 78 79 81 85 88 90 90 89 88 89 89 90 91 93 96
59 59 59 59 59 59 60 59 59 58 57 55 52 48 44 40 38 39 40 39 39 40 39 39 41 42 41 40 39 38 39 40 41 41 42 43 44 45 46 47 49 50 51 53 55 55 56 57 58 61 64 65 64 62 60 59 59 58 57 59 64 67 70 73 75 75 74 73 73 75 77 77 77 79 84 88 89 88 88 88 89 89 89 91 92
58 58 58 57 57 58 57 57 57 56 54 51 48 44 42 40 38 37 39 40 41 41 40 40 41 41 40 40 39 38 38 39 41 42 42 43 45 46 47 48 49 50 51 52 53 53 53 54 57 60 63 63 60 58 56 56 56 56 55 55 58 62 64 67 70 70 70 70 70 72 75 76 75 75 78 82 85 87 88 88 89 89 89 90 90
57 56 56 56 56 55 55 55 55 54 52 48 43 40 40 41 39 37 37 40 42 43 42 41 41 41 41 40 40 40 39 39 41 42 44 45 46 48 49 50 51 51 52 53 52 52 52 54 57 59 61 60 57 55 53 51 51 51 51 51 53 55 58 61 63 64 65 66 67 69 72 74 73 72 73 76 79 83 86 87 88 89 90 90 90
55 54 54 54 54 53 53 53 53 52 49 45 40 37 37 39 40 40 39 40 41 42 43 42 43 43 43 42 41 41 41 41 42 44 45 47 48 49 50 52 52 53 53 53 51 50 51 53 56 58 58 56 54 52 51 48 46 46 46 47 48 50 52 55 57 59 60 61 63 65 68 70 70 69 69 70 73 77 81 84 86 88 89 90 90
53 53 52 52 51 51 51 51 51 50 46 42 39 37 36 35 36 39 41 42 42 42 42 42 42 43 44 43 42 42 42 43 44 46 47 49 50 51 51 52 53 53 53 51 49 48 50 52 54 55 54 51 50 50 49 46 43 42 41 42 43 45 48 50 52 55 56 57 59 61 62 63 63 64 64 65 67 71 75 79 83 86 87 88 89
52 51 50 49 49 50 50 49 49 48 45 40 38 37 37 35 34 36 39 42 43 43 43 43 42 42 43 44 44 44 44 45 46 48 49 51 52 53 53 53 53 52 50 48 46 46 48 50 52 52 50 47 46 46 45 43 41 39 38 38 39 41 43 46 48 50 52 53 54 54 53 53 54 55 56 58 61 64 68 72 77 81 84 85 87
50 49 48 48 49 49 49 48 47 46 43 39 37 37 36 36 35 35 37 39 41 42 44 44 44 43 43 44 45 45 46 47 47 49 50 52 52 53 53 52 51 49 46 44 42 42 45 48 49 49 47 44 43 43 42 41 39 37 35 35 36 38 40 42 45 47 48 49 49 47 46 46 47 49 51 53 56 58 62 66 70 74 78 81 83
48 48 48 48 48 48 47 47 46 45 42 38 37 36 36 36 36 37 38 39 39 40 42 44 45 45 44 44 46 47 47 48 49 51 52 53 53 52 52 50 47 44 41 40 39 40 43 45 46 46 44 42 41 41 40 39 37 35 33 32 34 36 37 39 41 43 45 46 45 44 42 42 43 45 48 51 53 55 57 61 64 67 70 74 77
47 47 48 48 48 48 47 46 46 44 41 38 36 36 36 36 36 37 38 39 39 39 40 42 44 46 46 46 47 48 49 50 51 52 53 54 53 52 49 46 42 38 36 36 36 38 41 43 44 44 43 41 39 39 39 37 35 34 32 30 30 32 34 36 38 40 42 43 43 42 41 41 42 44 46 48 50 51 53 57 60 62 65 68 71
47 47 48 48 48 48 49 48 46 44 40 37 35 35 35 35 36 37 38 38 38 39 40 41 42 44 45 46 47 48 50 51 52 52 53 53 53 51 47 42 37 34 33 32 33 35 39 41 42 43 42 39 38 37 37 35 33 32 31 28 27 28 30 32 35 37 39 40 40 41 42 43 44 45 47 48 49 50 52 54 57 59 62 64 67
47 47 48 48 49 50 50 49 47 44 40 37 35 34 35 35 36 37 38 38 38 39 40 41 41 42 44 45 46 47 49 49 50 50 50 50 50 48 44 39 34 32 31 30 31 33 36 38 40 41 41 39 37 35 35 33 31 30 29 28 26 25 26 28 31 34 36 38 39 41 42 43 43 44 45 46 48 49 50 52 54 57 59 62 64
48 49 49 50 51 52 52 51 48 44 40 36 34 34 34 34 35 37 37 38 38 39 39 40 41 42 43 44 45 46 47 47 47 47 47 46 45 43 40 36 33 31 30 29 30 32 34 36 38 39 39 39 37 34 33 32 31 30 29 28 27 25 25 25 27 30 33 36 38 40 41 41 41 41 42 42 44 45 47 49 51 54 56 59 61
50 51 52 53 53 54 55 53 49 43 38 35 33 33 33 33 34 36 36 37 38 39 39 40 41 42 43 44 45 46 46 47 47 46 46 44 42 39 37 34 32 31 29 29 29 31 33 35 37 38 38 38 37 35 32 31 29 29 28 28 28 28 28 28 28 29 31 33 36 38 39 40 40 40 41 41 42 43 44 46 48 50 53 55 57
52 53 54 56 57 58 57 54 48 41 36 33 32 32 32 33 34 34 35 36 37 38 39 40 41 42 43 44 45 46 47 46 46 46 45 44 42 38 35 32 31 30 29 29 29 31 32 33 35 36 37 37 37 35 32 29 28 27 26 26 26 27 29 30 31 32 33 34 36 38 39 40 41 41 41 42 42 43 44 45 46 48 50 51 53
54 55 57 59 59 58 55 50 43 37 33 31 30 31 31 32 33 34 34 35 36 37 38 40 41 42 43 44 45 45 46 45 45 44 44 43 41 38 34 31 29 28 28 28 29 31 31 31 32 34 35 35 35 35 32 29 27 25 24 23 22 22 23 25 27 29 31 33 35 37 38 39 40 41 41 41 41 42 43 43 44 45 46 47 48
55 57 59 59 57 52 47 42 36 33 30 29 29 30 30 31 32 33 33 34 35 36 37 39 40 41 42 43 43 44 44 43 43 43 42 40 39 38 35 31 28 27 27 27 28 29 29 28 29 31 33 34 34 32 30 28 26 24 22 21 20 19 19 19 20 21 22 23 25 27 29 31 33 35 36 37 38 38 39 39 40 40 41 42 43
57 58 58 55 50 45 40 35 31 29 27 27 27 28 29 30 31 32 32 33 34 35 36 37 39 40 41 41 42 42 41 41 41 41 40 38 37 37 36 32 28 26 26 26 26 27 27 26 27 28 30 31 31 29 27 26 25 23 22 20 19 18 17 17 16 15 14 14 15 16 17 20 22 25 27 29 31 32 33 34 34 35 36 37 38
58 58 54 49 45 41 35 30 26 25 25 25 26 27 28 29 30 30 31 32 33 34 35 36 37 38 39 40 40 39 39 39 39 39 38 37 36 35 35 32 29 26 25 24 25 26 25 25 24 25 27 29 28 27 25 25 24 23 21 20 19 18 17 17 16 15 14 14 14 14 14 15 17 19 21 23 25 26 28 29 29 30 31 32 34
57 53 49 45 42 36 29 25 24 23 23 24 25 26 27 28 29 29 30 31 32 33 35 35 36 37 38 38 38 38 37 36 37 37 36 36 35 34 34 33 30 26 24 23 23 23 23 23 22 23 24 25 25 24 24 25 25 23 22 20 20 19 18 18 17 17 16 16 16 16 16 16 17 19 20 21 22 24 25 26 27 28 28 29 31
53 48 45 42 36 29 24 23 22 22 22 23 23 25 26 27 27 28 29 30 31 33 34 34 35 36 36 37 37 36 35 35 35 35 35 34 33 32 32 32 31 28 25 23 22 21 21 21 20 20 22 22 22 22 24 25 25 24 23 21 20 19 19 19 18 18 18 17 17 17 17 17 18 19 20 21 23 23 24 25 27 27 27 27 28
47 43 41 36 28 23 22 21 21 21 21 22 22 24 25 26 26 27 28 29 31 32 33 34 34 35 35 36 35 34 33 33 33 33 33 32 31 31 30 31 31 29 27 24 22 21 20 19 19 19 20 20 21 21 23 24 25 24 23 21 20 19 18 18 18 18 18 17 17 17 17 17 18 19 20 21 22 24 25 25 26 26 26 26 27
41 39 34 27 22 21 20 20 20 20 20 21 22 23 24 24 25 26 27 29 30 31 32 33 34 34 35 35 34 32 32 32 32 32 32 31 30 29 28 28 28 28 28 26 24 22 21 20 19 19 19 20 21 22 22 23 23 23 22 20 19 18 17 16 16 15 15 15 15 16 16 16 17 17 18 19 19 21 22 23 24 24 24 25 27
37 33 26 22 21 21 20 19 19 19 20 21 22 22 23 23 24 25 27 28 30 31 31 32 33 34 34 34 33 31 30 30 30 30 30 30 29 28 27 26 26 26 26 26 24 22 21 19 19 18 19 19 20 20 20 20 20 20 20 19 17 16 15 14 14 14 13 12 12 13 13 14 14 15 15 16 16 17 18 20 22 23 24 26 27
32 26 22 22 21 20 19 18 19 19 20 20 21 22 22 23 23 25 27 28 29 30 31 32 32 33 33 33 32 30 29 29 29 29 29 28 28 27 26 25 24 24 24 24 24 23 21 20 19 18 18 18 18 18 18 18 17 17 17 16 15 14 13 13 14 14 12 11 11 11 11 11 12 12 13 14 15 16 17 19 20 22 24 25 26
Wind_Direction
276 276 275 275 276 275 274 272 270 268 268 268 269 269 269 269 269 268 268 268 267 266 265 264 264 264 265 265 266 266 266 267 266 266 265 264 264 263 262 262 261 261 262 263 265 265 265 264 264 263 262 260 260 260 261 262 262 262 262 261 260 260 260 260 260 259 259 258 257 256 256 255 255 255 255 255 256 257 257 258 258 258 257 257 258
276 276 276 276 275 275 274 273 272 271 270 270 271 271 271 270 270 269 269 269 269 269 269 268 267 267 267 267 267 267 267 267 267 266 265 264 264 264 264 263 263 263 264 264 264 264 263 263 263 262 262 261 260 260 260 261 261 261 261 261 261 261 260 260 259 258 258 258 258 258 257 256 256 255 255 254 254 254 255 256 257 257 257 257 257
278 278 277 277 276 275 275 274 273 273 272 272 272 272 272 272 271 271 270 270 270 271 271 271 271 270 270 270 270 269 269 268 268 268 267 266 266 266 266 265 265 265 265 265 264 264 263 262 261 261 261 260 260 260 260 260 260 261 261 261 261 261 261 260 260 259 257 257 257 258 258 257 256 255 255 255 254 254 254 254 255 256 256 256 256
279 278 278 277 276 276 275 275 274 274 273 273 273 273 273 272 272 272 271 271 271 271 271 272 271 271 272 272 271 270 269 269 269 269 269 268 268 268 268 268 267 267 266 265 264 264 264 263 262 261 261 260 259 259 259 259 259 259 260 260 261 261 261 261 260 259 258 257 256 256 257 257 256 255 255 255 255 255 255 254 254 255 255 256 256
279 279 279 279 278 278 277 277 276 276 275 275 275 274 274 274 273 273 272 272 271 271 271 271 271 271 271 272 271 270 269 269 269 269 270 270 270 270 270 269 269 268 267 265 264 264 263 263 263 263 263 262 261 260 259 259 258 258 258 259 259 259 259 260 260 260 259 257 256 256 256 256 256 255 255 255 255 255 255 255 255 255 255 255 255
280 280 280 280 280 279 279 278 278 277 277 276 276 276 275 275 274 274 274 273 273 272 272 271 271 271 270 270 270 269 269 268 268 268 268 269 270 270 270 270 270 269 268 267 266 265 265 263 263 263 264 264 263 262 261 261 260 260 259 259 259 259 258 258 258 259 258 257 256 256 256 256 256 256 255 255 254 254 255 255 255 255 255 255 254
281 281 281 281 281 281 280 280 279 279 278 278 278 277 277 276 276 276 275 275 274 273 273 272 272 271 271 270 269 269 268 268 268 268 267 267 267 267 268 268 269 269 268 268 268 267 266 265 263 263 263 264 264 263 262 263 263 262 261 261 261 261 260 259 258 257 257 256 256 256 256 256 256 256 256 256 255 254 254 255 255 255 256 256 255
282 282 282 282 282 282 282 282 282 281 281 281 280 280 279 279 279 278 278 277 277 276 276 275 274 274 273 272 271 270 269 268 268 268 267 266 266 266 265 265 265 266 266 267 267 268 267 266 265 263 263 263 263 263 263 263 264 264 263 263 262 262 262 262 261 259 257 256 255 256 256 256 257 257 257 258 258 257 257 256 256 255 255 256 255
282 282 283 283 283 283 283 282 282 282 282 281 281 281 281 280 280 280 279 279 279 278 278 278 277 276 276 275 274 273 272 271 270 269 268 267 266 266 265 264 264 263 263 263 264 265 266 266 266 265 264 263 263 263 263 263 264 264 263 263 264 263 263 263 263 263 261 259 256 255 255 255 256 257 258 259 259 260 259 258 257 255 254 254 253
282 282 282 282 282 282 282 282 282 282 282 282 282 282 281 281 281 281 280 280 280 279 279 279 278 278 277 276 276 275 274 274 273 272 271 270 268 267 266 265 265 264 263 262 262 262 263 263 264 264 264 264 264 263 263 263 263 263 262 262 263 263 263 263 263 264 263 262 260 258 256 255 255 256 258 259 259 260 260 260 259 257 255 253 253
283 283 283 283 283 283 283 283 283 283 283 283 283 283 282 282 282 281 281 281 280 280 279 279 279 278 277 277 276 276 275 275 274 273 273 272 271 270 269 267 266 265 265 264 263 262 262 262 262 262 262 263 263 263 263 263 263 263 262 262 262 262 263 263 263 263 263 263 263 261 259 257 256 257 257 258 259 260 260 260 260 259 257 255 253
284 284 284 284 284 284 285 285 285 285 285 285 285 285 284 284 284 283 283 282 282 282 281 280 280 279 278 277 276 276 275 275 274 273 273 273 272 272 271 270 269 268 267 266 265 264 263 262 262 262 262 262 262 262 263 263 263 263 263 263 262 262 262 262 262 262 263 263 263 263 262 261 260 259 258 258 259 259 259 259 259 258 258 257 255
285 286 286 287 287 288 288 288 288 288 289 289 288 288 288 287 287 287 286 286 285 285 284 283 283 282 281 279 278 277 276 275 274 273 273 273 273 272 272 271 271 270 269 268 267 266 265 264 263 262 262 262 262 262 262 262 263 263 263 263 263 262 262 262 262 262 262 262 262 262 262 263 262 261 260 260 259 259 259 259 258 258 258 257 256
288 289 290 290 291 291 291 291 291 291 291 291 291 291 290 290 290 290 290 289 289 288 287 286 285 284 284 282 281 280 279 277 276 275 274 273 272 272 272 272 272 272 271 271 270 269 268 267 266 264 263 263 263 263 262 262 262 262 262 262 262 262 262 262 262 262 262 262 261 261 261 261 261 261 261 260 260 259 259 258 258 258 257 256 255
290 291 292 292 292 292 292 292 292 292 292 292 292 292 292 292 292 292 291 291 291 290 289 288 287 286 286 284 283 282 281 279 278 276 275 274 273 273 273 273 273 273 273 273 272 271 270 269 268 266 265 263 263 262 262 262 261 261 260 260 260 260 260 260 261 261 261 261 261 261 260 259 259 259 258 258 259 258 258 257 257 256 256 255 254
291 291 292 292 292 292 292 292 292 292 292 292 292 293 293 293 293 292 292 292 292 292 291 290 290 289 288 287 285 284 282 281 279 278 277 276 275 274 274 274 274 274 274 273 273 273 272 271 270 268 266 265 263 262 262 261 260 260 259 259 258 258 258 259 259 259 259 259 259 259 259 258 258 257 256 256 256 256 256 256 255 255 255 255 255
291 291 291 291 291 292 292 292 292 292 293 293 293 293 293 293 293 293 293 293 293 293 293 292 292 291 290 289 288 286 284 283 281 280 279 278 277 276 276 276 275 274 274 273 273 272 272 272 271 270 268 267 265 264 263 262 260 259 259 258 257 257 257 257 257 257 258 258 257 257 257 256 256 255 255 254 254 254 254 254 254 254 254 254 254
291 291 291 291 292 292 292 293 293 293 293 293 294 294 294 294 295 295 295 295 295 295 294 294 294 293 292 291 289 287 286 284 283 282 281 280 279 278 278 277 276 276 275 275 274 274 273 273 272 272 270 269 267 266 265 263 262 260 259 258 257 256 256 255 255 255 256 256 255 255 255 254 254 253 253 252 252 252 252 252 253 253 253 253 253
291 291 292 292 292 293 293 293 293 293 294 294 295 295 296 296 297 297 297 297 297 297 296 296 295 295 294 292 291 289 287 285 285 284 283 282 280 279 279 279 279 279 278 278 278 278 277 276 275 274 273 272 270 268 267 265 264 262 260 259 257 256 256 255 255 254 254 253 253 253 253 252 252 251 250 250 250 250 251 251 251 252 252 253 252
292 292 293 294 294 294 294 294 295 295 295 296 296 297 297 298 299 299 299 299 299 298 298 298 297 296 294 293 291 290 288 286 285 284 283 281 281 280 280 280 280 280 281 281 282 281 281 279 277 276 274 273 271 270 268 267 266 264 262 260 259 257 256 255 254 253 253 252 252 252 251 251 250 249 249 248 248 248 249 249 249 250 250 251 251
293 294 295 295 296 296 296 296 296 296 297 297 298 298 299 300 301 301 300 299 299 300 300 300 299 297 296 294 291 289 287 285 284 283 282 282 282 282 281 281 281 282 283 284 285 284 283 281 278 276 275 273 271 270 269 267 266 265 264 263 261 259 256 254 253 253 252 251 251 250 250 250 249 249 248 248 248 247 248 248 248 248 248 249 249
295 296 297 297 297 297 297 297 298 298 299 299 299 301 302 302 302 301 300 299 300 301 302 302 301 300 299 296 292 289 287 285 284 283 283 283 283 283 283 283 284 285 286 287 288 287 286 284 282 280 278 276 273 271 269 268 266 265 264 263 262 260 257 255 253 252 251 251 250 249 249 249 249 249 248 248 247 247 247 247 247 246 246 246 246
297 298 298 298 298 298 299 299 299 300 300 301 301 302 302 302 301 300 298 299 300 302 304 305 306 306 304 300 295 291 288 287 286 285 284 284 284 285 285 286 287 288 288 290 291 291 289 288 286 284 282 281 278 275 272 270 267 265 264 263 261 260 258 256 254 252 251 251 250 249 248 248 248 248 248 248 247 247 246 246 246 245 245 244 244
299 299 299 299 300 300 300 300 301 301 301 302 302 303 302 302 300 298 297 299 301 303 305 308 310 310 308 304 299 295 292 290 289 288 287 287 287 287 288 289 290 290 291 292 293 293 293 292 291 290 289 288 285 281 276 272 269 266 264 262 261 259 257 256 255 253 252 251 250 249 248 247 247 248 248 248 247 247 246 246 245 245 244 243 243
300 300 300 300 301 301 301 301 301 301 302 302 303 302 301 300 297 296 297 299 301 303 305 308 310 310 308 306 304 301 298 295 293 292 291 291 291 291 292 292 293 293 293 293 294 295 296 297 297 298 297 294 290 285 280 275 270 267 264 261 259 258 257 256 254 253 252 252 251 251 249 248 247 247 247 247 246 246 246 245 245 244 244 243 242
300 301 301 301 301 301 301 301 301 301 302 302 302 301 300 297 295 295 298 299 301 302 305 308 309 308 307 307 306 305 304 302 300 298 297 297 296 296 296 296 296 296 295 295 296 296 298 300 301 301 300 299 295 290 284 278 272 267 264 261 259 257 256 255 254 253 252 252 251 251 251 249 247 246 246 245 244 244 244 245 245 244 244 244 243
301 301 301 301 300 300 300 301 301 301 302 302 302 300 298 295 295 297 299 300 301 302 305 307 308 307 306 306 305 306 305 304 303 302 301 300 299 298 298 298 298 297 296 295 295 296 297 299 300 300 301 301 299 294 289 282 276 270 265 262 260 257 255 254 253 252 251 251 251 251 251 249 247 246 245 244 243 243 243 244 244 244 244 244 243
300 300 300 300 299 300 300 300 301 301 302 302 301 299 296 295 296 299 300 300 301 302 303 305 305 305 305 305 305 305 305 305 304 303 302 301 299 298 298 297 297 297 296 294 294 295 296 297 298 299 300 300 299 295 291 286 280 274 268 263 259 257 255 253 252 251 250 250 250 250 250 249 247 246 245 244 243 242 242 242 243 244 244 244 244
300 299 299 299 299 299 300 300 301 301 302 302 300 297 295 295 296 298 300 301 302 301 302 303 305 305 306 306 306 306 306 306 307 306 304 303 302 301 300 299 298 297 296 296 296 297 297 298 299 300 301 301 298 295 291 286 281 276 271 265 260 257 255 253 251 250 249 248 248 248 249 248 247 246 245 245 243 242 241 241 241 242 243 243 244
299 298 298 298 298 299 299 300 301 302 302 300 297 295 297 299 298 297 298 301 303 303 304 306 307 308 308 309 310 310 309 309 309 309 308 308 307 305 304 302 301 300 299 298 300 301 301 302 303 304 304 303 300 297 293 288 281 276 272 267 261 258 255 253 250 249 248 248 248 248 247 247 246 245 245 245 244 243 242 241 241 241 242 242 243
297 297 297 297 297 298 300 301 302 302 302 299 294 291 295 299 302 302 301 302 303 304 306 308 310 311 310 310 311 311 311 312 312 312 311 310 309 307 305 304 302 301 300 300 302 303 303 304 305 306 307 305 303 300 296 291 284 279 273 268 263 259 254 252 250 249 248 248 248 247 246 246 245 244 244 245 245 244 243 242 241 240 241 241 242
296 296 296 296 297 298 300 302 302 302 301 297 292 291 292 294 299 304 306 306 305 306 307 309 311 312 312 312 311 312 312 313 313 314 313 312 310 309 306 304 302 301 300 302 303 304 305 307 309 310 309 307 304 302 298 293 288 283 277 270 264 258 253 251 250 250 249 249 248 246 245 244 245 245 246 246 246 245 244 243 242 241 241 241 241
295 295 295 296 297 299 301 302 301 301 299 294 290 291 292 291 293 298 304 307 309 310 310 310 311 312 312 313 313 314 314 315 315 315 314 313 311 309 307 304 302 301 300 302 303 305 308 311 313 313 312 310 307 304 299 295 291 288 282 274 265 258 253 252 252 252 250 249 246 244 243 244 246 248 249 248 248 247 245 244 243 243 242 241 241
294 294 294 296 298 300 301 301 301 300 297 291 288 290 292 292 293 296 300 303 307 311 313 314 314 314 315 315 316 316 316 316 316 315 314 313 311 309 307 305 302 301 300 302 304 307 311 314 316 317 316 313 310 306 301 297 294 292 287 276 265 257 253 253 253 251 249 246 242 240 240 243 246 248 248 248 247 246 246 245 244 243 243 242 242
293 294 295 297 299 300 302 301 301 299 295 289 287 290 292 293 295 299 301 302 303 307 311 314 315 316 317 317 318 318 318 318 317 316 315 313 311 310 308 305 302 301 301 303 306 310 314 317 321 322 320 316 313 309 304 299 296 296 291 280 267 258 254 253 253 251 248 243 239 237 239 241 244 246 247 247 246 246 245 244 244 244 243 243 243
294 295 297 298 300 301 302 302 301 298 293 287 286 289 292 293 296 300 303 304 304 307 310 313 314 316 317 318 319 320 320 319 318 317 316 314 313 312 309 306 302 301 301 303 307 313 318 322 326 327 324 319 315 312 307 301 297 296 295 286 273 263 258 256 254 251 247 242 238 237 239 241 242 244 246 247 247 246 245 244 243 243 242 242 242
295 297 298 299 300 301 302 302 301 298 292 285 285 288 292 294 298 302 304 305 307 309 311 312 314 316 318 319 320 321 321 322 321 320 318 316 315 314 312 307 303 301 300 301 307 314 319 324 328 330 329 324 318 314 310 303 296 293 294 291 282 271 264 260 256 251 246 240 237 238 241 244 245 246 246 247 247 247 245 244 243 242 241 241 241
296 297 298 299 300 300 301 301 300 296 290 284 283 287 292 295 299 303 304 306 308 310 311 312 313 315 317 319 320 321 322 323 324 323 322 320 319 317 314 310 305 301 300 301 306 313 319 324 328 331 332 329 323 317 313 307 298 291 289 288 285 278 270 264 257 250 243 237 236 238 242 245 248 249 250 251 251 250 249 247 245 243 241 241 241
296 297 298 299 299 300 300 300 298 294 287 282 282 286 292 296 300 302 305 307 310 311 312 313 315 316 317 319 321 322 323 323 323 324 324 323 322 319 315 310 306 302 300 301 306 312 318 323 326 329 332 333 329 322 316 311 305 295 286 282 280 277 272 266 259 251 243 238 238 240 244 247 250 252 254 255 256 255 253 251 249 246 244 242 241
297 297 298 299 299 299 298 297 295 290 283 278 280 286 291 296 299 301 304 308 310 312 313 314 316 317 319 320 321 322 323 323 324 324 325 326 325 322 317 312 308 304 301 302 306 311 316 321 324 326 330 333 332 327 320 314 310 304 294 284 277 273 269 266 261 256 250 247 245 247 248 251 253 255 256 258 258 258 257 255 252 249 246 244 242
297 297 298 299 299 298 297 295 291 285 277 274 278 285 291 295 298 301 304 308 311 313 314 316 317 319 320 322 323 324 324 325 326 327 327 328 328 326 320 314 310 307 303 303 306 311 314 317 321 324 327 330 332 330 324 317 313 311 305 296 287 280 274 269 265 262 259 257 255 255 255 256 257 257 258 259 259 258 257 255 253 250 248 246 243
297 298 299 299 299 297 295 292 286 278 271 271 277 284 290 295 298 301 305 309 312 314 315 317 318 320 322 324 325 326 326 327 328 329 330 330 330 329 324 318 314 312 309 306 308 311 313 315 319 323 327 329 330 330 327 321 315 313 310 305 298 291 284 277 272 268 265 263 262 261 260 260 260 259 258 257 257 256 255 253 252 250 248 245 243
297 299 300 300 299 297 293 288 279 270 265 269 277 285 290 294 298 302 306 309 312 314 316 317 319 321 323 325 326 327 327 329 329 330 330 331 332 331 328 322 316 315 314 312 311 312 313 314 318 323 327 329 329 329 328 324 318 313 310 307 301 294 288 283 277 273 269 267 265 264 263 261 259 258 256 255 253 252 251 249 248 246 244 242 241
298 300 300 299 297 295 290 281 270 262 262 269 278 285 290 294 298 302 307 310 312 314 316 317 320 322 324 326 327 327 328 328 329 329 330 331 332 333 332 327 320 316 316 316 316 315 315 316 319 324 330 332 332 332 330 328 323 315 309 306 303 296 289 283 277 271 266 261 259 259 260 260 259 257 254 253 250 249 247 245 243 242 240 239 238
300 300 299 297 295 291 284 271 259 256 262 271 279 285 290 294 298 303 307 310 313 315 316 318 320 322 324 326 327 327 327 328 328 328 329 330 331 333 334 332 326 320 317 317 318 318 318 319 322 328 333 337 339 339 337 336 333 325 315 307 302 298 292 284 275 267 259 251 245 242 242 246 249 251 251 250 248 246 244 242 240 238 237 236 235
300 299 296 295 292 285 272 257 251 255 263 272 280 286 290 295 299 304 308 311 313 315 316 318 321 323 325 326 327 326 326 327 328 328 328 327 328 331 335 336 334 327 321 319 319 320 321 321 325 331 336 341 345 348 346 343 342 338 330 319 308 300 296 291 284 277 269 261 254 248 242 241 242 243 244 245 244 243 242 240 237 235 234 233 232
298 295 294 293 287 273 255 246 249 257 266 275 282 287 292 296 300 305 309 312 313 315 317 319 321 324 326 327 326 326 326 327 328 329 328 326 326 328 332 337 339 337 331 326 323 323 324 325 327 332 337 340 344 347 347 344 341 338 336 331 323 311 301 294 290 286 281 275 269 264 258 254 250 248 246 243 241 239 238 237 234 232 230 229 227
293 292 292 288 273 252 242 244 252 261 270 278 284 288 292 296 301 306 310 312 314 316 318 320 322 325 326 326 326 325 326 326 327 328 329 327 325 325 328 333 338 340 339 336 332 330 329 329 329 332 334 336 337 338 340 341 340 337 333 331 329 324 315 303 295 289 284 280 275 270 266 263 259 256 254 250 246 242 238 235 233 230 228 227 225
290 290 287 272 250 238 240 247 256 265 273 280 285 289 293 298 303 308 310 312 315 317 319 321 324 325 326 326 325 325 325 326 327 328 329 330 327 324 324 327 333 338 341 342 340 338 336 334 332 330 330 330 330 331 332 334 338 339 336 331 328 327 324 317 308 299 293 288 283 278 273 269 266 262 259 255 253 250 245 239 235 232 230 228 227
288 285 272 248 235 236 243 251 260 269 276 282 286 290 295 300 305 308 311 313 316 318 321 323 325 325 326 326 325 323 323 325 326 327 328 330 330 327 324 323 326 332 337 341 343 343 342 339 336 332 329 327 327 328 330 332 335 339 342 340 335 331 329 328 324 317 309 303 298 293 285 277 271 267 260 255 254 255 251 242 235 234 234 232 230
282 270 248 234 233 239 245 254 264 272 278 283 287 291 296 301 305 308 312 315 318 321 323 324 325 326 325 325 324 322 321 321 323 325 327 329 330 331 329 326 324 325 329 334 339 343 345 344 342 339 336 333 332 333 335 336 336 337 341 345 344 340 336 334 332 328 323 319 315 310 301 289 277 269 261 252 248 250 250 245 239 237 237 236 233
Height
5637 5636 5635 5634 5633 5631 5630 5629 5628 5627 5625 5624 5623 5622 5621 5620 5619 5618 5617 5615 5614 5613 5611 5609 5608 5607 5606 5605 5605 5604 5604 5603 5603 5603 5604 5604 5603 5603 5603 5603 5604 5604 5604 5604 5604 5603 5605 5607 5608 5607 5606 5608 5610 5610 5610 5611 5611 5612 5612 5613 5615 5615 5615 5615 5619 5626 5630 5630 5632 5634 5635 5636 5638 5641 5642 5642 5643 5643 5645 5647 5648 5650 5653 5653 5654
5627 5626 5625 5624 5623 5622 5621 5620 5618 5617 5615 5613 5612 5611 5610 5609 5609 5608 5607 5604 5603 5601 5600 5598 5597 5595 5594 5593 5592 5592 5591 5591 5590 5590 5590 5590 5590 5590 5590 5590 5591 5592 5592 5592 5592 5591 5592 5594 5595 5595 5594 5595 5598 5598 5598 5599 5599 5600 5601 5601 5603 5604 5603 5603 5607 5612 5618 5619 5619 5621 5624 5625 5628 5631 5631 5632 5633 5633 5635 5637 5639 5640 5642 5643 5644
5616 5615 5614 5613 5612 5611 5610 5609 5607 5606 5604 5602 5600 5599 5598 5597 5596 5595 5595 5593 5592 5590 5588 5587 5586 5585 5584 5582 5580 5579 5578 5577 5577 5577 5576 5576 5576 5576 5576 5576 5577 5578 5579 5579 5579 5579 5579 5581 5582 5582 5581 5583 5586 5586 5586 5586 5586 5588 5589 5589 5590 5592 5591 5591 5593 5599 5604 5607 5607 5609 5611 5612 5616 5619 5620 5621 5622 5622 5625 5628 5628 5630 5632 5634 5635
5605 5604 5602 5601 5600 5599 5598 5597 5595 5594 5592 5590 5589 5587 5585 5584 5582 5581 5581 5580 5579 5578 5576 5576 5575 5574 5573 5571 5570 5568 5566 5564 5563 5563 5562 5561 5560 5561 5561 5561 5562 5563 5564 5565 5566 5565 5566 5568 5569 5569 5568 5570 5573 5574 5573 5573 5574 5574 5577 5578 5578 5580 5580 5579 5581 5585 5589 5594 5597 5597 5598 5600 5604 5607 5608 5610 5611 5612 5615 5617 5618 5620 5622 5623 5625
5593 5591 5589 5588 5587 5586 5585 5584 5583 5581 5579 5577 5575 5573 5571 5570 5568 5567 5566 5566 5565 5564 5562 5562 5561 5560 5560 5558 5557 5556 5554 5552 5551 5550 5547 5545 5543 5544 5544 5544 5545 5546 5548 5549 5550 5551 5552 5554 5556 5555 5555 5556 5559 5560 5560 5560 5560 5561 5564 5566 5566 5567 5567 5567 5569 5572 5575 5581 5585 5585 5585 5588 5591 5593 5596 5598 5600 5602 5604 5606 5608 5610 5611 5613 5615
5580 5578 5576 5575 5573 5572 5571 5570 5568 5566 5564 5562 5560 5558 5556 5555 5554 5552 5551 5550 5550 5548 5547 5547 5546 5545 5545 5544 5542 5541 5540 5539 5538 5537 5534 5531 5527 5526 5526 5526 5527 5528 5530 5532 5534 5535 5537 5539 5541 5542 5541 5542 5545 5546 5545 5545 5546 5547 5550 5552 5552 5552 5554 5556 5557 5558 5561 5567 5571 5572 5573 5576 5578 5580 5584 5585 5587 5590 5592 5595 5597 5599 5600 5602 5604
5569 5566 5564 5562 5560 5558 5557 5555 5553 5551 5549 5547 5545 5543 5541 5540 5539 5537 5535 5534 5533 5532 5531 5530 5529 5528 5528 5527 5526 5525 5524 5524 5523 5521 5519 5516 5513 5511 5510 5510 5510 5511 5513 5515 5517 5519 5521 5523 5526 5527 5527 5528 5530 5531 5531 5531 5531 5533 5535 5537 5537 5536 5538 5542 5543 5544 5548 5553 5557 5559 5561 5562 5564 5567 5571 5572 5574 5578 5582 5584 5586 5588 5590 5592 5594
5557 5554 5551 5549 5547 5545 5543 5540 5538 5536 5534 5532 5530 5528 5526 5525 5523 5521 5519 5517 5515 5514 5513 5512 5511 5510 5509 5509 5508 5507 5507 5507 5506 5503 5500 5498 5496 5495 5496 5496 5496 5497 5498 5499 5500 5501 5504 5506 5509 5511 5512 5512 5514 5515 5517 5517 5517 5519 5521 5522 5521 5521 5523 5525 5528 5530 5534 5539 5543 5547 5548 5549 5551 5555 5557 5559 5562 5568 5571 5571 5573 5577 5578 5580 5583
5546 5543 5540 5537 5535 5533 5530 5527 5524 5522 5519 5517 5515 5513 5511 5510 5508 5506 5504 5502 5500 5498 5495 5494 5492 5491 5491 5489 5488 5488 5488 5488 5487 5484 5480 5478 5477 5477 5478 5479 5480 5482 5484 5486 5487 5487 5488 5489 5491 5494 5495 5496 5498 5499 5501 5501 5501 5503 5507 5507 5506 5506 5508 5510 5512 5514 5518 5522 5528 5533 5534 5535 5540 5542 5544 5547 5551 5555 5556 5556 5560 5564 5565 5566 5568
5534 5531 5528 5526 5523 5520 5517 5514 5511 5509 5506 5504 5502 5500 5498 5496 5494 5492 5490 5488 5485 5483 5481 5479 5476 5474 5472 5471 5471 5470 5469 5469 5467 5462 5458 5457 5457 5457 5459 5461 5462 5464 5467 5470 5473 5474 5474 5474 5474 5476 5477 5478 5480 5482 5483 5484 5484 5486 5490 5492 5490 5490 5492 5494 5497 5499 5501 5505 5512 5517 5518 5522 5528 5530 5531 5535 5538 5538 5540 5543 5547 5551 5551 5552 5557
5521 5518 5516 5513 5510 5507 5504 5502 5499 5496 5494 5492 5490 5488 5485 5483 5481 5479 5477 5475 5472 5470 5467 5465 5462 5459 5456 5455 5455 5454 5453 5452 5447 5442 5439 5437 5436 5436 5437 5440 5443 5446 5449 5451 5455 5458 5459 5459 5459 5460 5460 5461 5462 5463 5464 5465 5467 5468 5471 5474 5474 5473 5475 5478 5482 5484 5485 5487 5494 5500 5501 5508 5516 5518 5517 5521 5523 5523 5527 5531 5533 5536 5538 5541 5547
5508 5505 5502 5500 5497 5494 5492 5489 5487 5484 5482 5480 5477 5475 5473 5471 5468 5466 5465 5462 5459 5457 5455 5451 5449 5446 5442 5441 5440 5439 5438 5436 5430 5425 5423 5421 5418 5416 5416 5420 5424 5427 5430 5432 5434 5438 5440 5441 5442 5443 5444 5445 5445 5445 5446 5447 5448 5449 5449 5452 5454 5455 5457 5460 5465 5469 5470 5471 5476 5482 5486 5493 5501 5503 5504 5507 5508 5508 5512 5514 5517 5523 5526 5530 5536
5495 5492 5490 5487 5485 5482 5480 5477 5475 5473 5470 5467 5465 5463 5461 5459 5456 5454 5452 5450 5447 5445 5442 5439 5436 5432 5428 5426 5426 5425 5423 5419 5414 5411 5409 5407 5404 5400 5400 5403 5406 5409 5411 5413 5415 5417 5419 5421 5423 5425 5427 5429 5428 5427 5427 5428 5429 5429 5429 5430 5432 5435 5438 5441 5446 5450 5453 5455 5458 5466 5473 5478 5482 5487 5489 5489 5490 5492 5496 5499 5504 5509 5512 5517 5524
5484 5482 5479 5476 5474 5471 5469 5467 5465 5462 5459 5457 5454 5452 5449 5447 5444 5442 5439 5437 5435 5432 5429 5426 5422 5419 5415 5412 5411 5411 5408 5403 5399 5397 5395 5392 5390 5387 5387 5389 5391 5392 5394 5396 5396 5398 5400 5401 5403 5406 5409 5410 5410 5409 5408 5408 5408 5409 5410 5411 5413 5417 5420 5423 5426 5431 5435 5438 5441 5450 5460 5463 5464 5470 5472 5469 5470 5477 5481 5485 5489 5492 5496 5503 5508
5476 5473 5470 5467 5464 5462 5459 5457 5455 5452 5450 5447 5444 5442 5439 5436 5433 5430 5428 5425 5422 5419 5416 5413 5410 5406 5403 5399 5397 5397 5394 5388 5384 5383 5380 5378 5377 5375 5375 5376 5377 5379 5380 5381 5380 5380 5382 5383 5383 5385 5388 5390 5391 5390 5388 5387 5387 5387 5389 5392 5395 5398 5401 5404 5409 5413 5416 5419 5422 5431 5442 5446 5447 5452 5454 5452 5454 5460 5465 5468 5473 5475 5478 5484 5490
5469 5466 5463 5459 5456 5453 5451 5449 5446 5443 5440 5437 5435 5432 5429 5426 5422 5419 5417 5414 5410 5407 5403 5400 5397 5393 5390 5386 5383 5383 5380 5374 5371 5369 5366 5365 5364 5363 5363 5364 5365 5367 5368 5367 5366 5365 5366 5365 5364 5365 5367 5370 5372 5371 5368 5367 5366 5367 5369 5372 5376 5379 5382 5387 5393 5396 5398 5401 5405 5411 5421 5429 5431 5433 5436 5436 5438 5443 5447 5450 5454 5458 5462 5468 5475
5461 5458 5455 5451 5448 5445 5443 5440 5437 5434 5431 5428 5425 5422 5419 5416 5412 5409 5406 5404 5400 5396 5392 5389 5384 5380 5378 5374 5370 5369 5367 5361 5358 5356 5354 5353 5352 5351 5352 5353 5354 5354 5355 5354 5353 5352 5352 5350 5349 5349 5350 5353 5354 5353 5350 5348 5347 5348 5351 5353 5356 5359 5364 5372 5377 5378 5379 5382 5385 5390 5399 5409 5413 5415 5417 5419 5421 5426 5428 5431 5437 5443 5447 5452 5461
5454 5450 5447 5443 5440 5437 5434 5431 5428 5425 5421 5418 5415 5412 5409 5406 5402 5399 5395 5393 5389 5385 5381 5378 5374 5369 5366 5362 5359 5357 5355 5350 5347 5345 5344 5342 5341 5341 5341 5341 5342 5342 5343 5342 5341 5340 5340 5338 5336 5334 5335 5337 5337 5336 5334 5331 5329 5331 5334 5336 5338 5340 5347 5357 5360 5360 5360 5362 5364 5369 5377 5387 5394 5396 5398 5401 5404 5406 5408 5414 5423 5428 5430 5436 5447
5446 5442 5439 5436 5432 5429 5425 5422 5419 5415 5412 5409 5406 5403 5399 5396 5393 5389 5385 5381 5379 5375 5371 5368 5365 5360 5356 5352 5349 5346 5344 5342 5339 5337 5336 5333 5332 5332 5332 5333 5334 5333 5333 5333 5332 5330 5330 5328 5325 5322 5322 5323 5322 5320 5319 5315 5312 5315 5318 5318 5320 5325 5335 5341 5341 5340 5341 5342 5344 5349 5356 5364 5372 5374 5377 5382 5387 5388 5390 5399 5409 5411 5414 5424 5434
5438 5434 5431 5427 5424 5420 5417 5413 5409 5406 5403 5400 5397 5393 5389 5386 5383 5379 5375 5371 5368 5365 5361 5358 5355 5352 5347 5344 5341 5338 5336 5334 5332 5330 5328 5326 5325 5325 5325 5326 5326 5325 5325 5324 5323 5322 5320 5318 5315 5311 5309 5309 5308 5306 5304 5301 5298 5298 5300 5301 5305 5314 5322 5322 5320 5321 5323 5324 5328 5331 5335 5342 5349 5353 5356 5362 5369 5372 5376 5384 5393 5398 5402 5410 5417
5430 5426 5422 5419 5415 5411 5408 5404 5400 5397 5394 5391 5388 5384 5380 5377 5373 5369 5366 5363 5360 5357 5354 5350 5347 5344 5340 5336 5333 5330 5328 5327 5325 5323 5321 5320 5318 5318 5318 5318 5318 5317 5317 5316 5314 5312 5309 5306 5303 5300 5296 5295 5294 5292 5290 5287 5283 5282 5284 5288 5292 5299 5302 5301 5301 5304 5305 5306 5311 5314 5317 5323 5329 5334 5338 5344 5351 5358 5362 5368 5376 5383 5389 5395 5400
5422 5418 5414 5410 5407 5403 5399 5395 5391 5388 5385 5382 5379 5375 5371 5368 5364 5361 5358 5355 5353 5350 5346 5343 5340 5337 5333 5329 5326 5323 5321 5319 5318 5316 5314 5313 5311 5310 5310 5309 5308 5308 5308 5306 5303 5300 5297 5294 5291 5287 5284 5282 5281 5278 5275 5272 5269 5267 5270 5274 5277 5280 5282 5282 5284 5286 5286 5289 5294 5298 5302 5308 5312 5317 5322 5328 5335 5342 5347 5351 5359 5366 5372 5378 5383
5413 5409 5405 5402 5398 5394 5391 5387 5383 5379 5376 5372 5370 5367 5363 5360 5357 5353 5351 5349 5347 5344 5340 5337 5333 5330 5327 5324 5320 5316 5314 5312 5309 5308 5307 5306 5304 5302 5301 5300 5299 5297 5297 5295 5293 5290 5286 5283 5279 5276 5272 5269 5267 5265 5262 5258 5254 5254 5256 5257 5259 5262 5263 5264 5266 5269 5271 5274 5277 5281 5287 5293 5297 5301 5307 5313 5320 5327 5332 5335 5341 5346 5352 5359 5365
5405 5401 5397 5394 5390 5386 5382 5378 5374 5371 5367 5364 5361 5358 5355 5353 5350 5347 5344 5343 5341 5338 5335 5331 5328 5325 5322 5319 5314 5310 5307 5304 5302 5300 5299 5298 5296 5294 5292 5291 5290 5287 5286 5284 5282 5279 5276 5272 5268 5265 5261 5257 5253 5250 5248 5244 5241 5240 5240 5241 5241 5243 5244 5247 5250 5254 5256 5259 5261 5266 5273 5279 5284 5288 5294 5301 5307 5312 5315 5318 5323 5327 5332 5340 5346
5397 5393 5389 5386 5382 5378 5374 5370 5366 5363 5359 5356 5353 5350 5348 5346 5344 5341 5338 5337 5335 5333 5330 5326 5323 5320 5318 5314 5310 5306 5302 5298 5295 5293 5291 5290 5288 5286 5284 5282 5280 5277 5275 5273 5270 5267 5264 5261 5257 5253 5249 5244 5240 5236 5233 5230 5227 5225 5225 5225 5225 5225 5227 5231 5235 5238 5241 5245 5249 5253 5259 5266 5271 5277 5283 5288 5292 5294 5297 5301 5306 5311 5315 5321 5328
5389 5385 5381 5378 5374 5370 5367 5363 5359 5356 5352 5349 5346 5342 5340 5340 5338 5335 5333 5331 5329 5327 5324 5321 5318 5316 5313 5309 5305 5302 5297 5293 5290 5287 5285 5283 5281 5278 5276 5274 5271 5268 5265 5262 5259 5256 5253 5249 5245 5241 5236 5231 5226 5222 5219 5216 5213 5211 5211 5210 5210 5211 5213 5216 5219 5223 5227 5232 5236 5239 5245 5252 5258 5263 5268 5271 5273 5277 5283 5288 5292 5297 5301 5306 5311
5381 5377 5373 5370 5367 5363 5360 5356 5353 5349 5346 5342 5339 5335 5333 5332 5332 5329 5326 5325 5323 5320 5318 5316 5313 5310 5308 5304 5300 5297 5293 5288 5285 5282 5280 5277 5275 5272 5269 5266 5263 5260 5256 5253 5249 5247 5244 5241 5236 5230 5225 5219 5213 5208 5205 5202 5200 5199 5198 5197 5197 5198 5199 5201 5204 5208 5213 5219 5223 5226 5231 5237 5242 5246 5250 5253 5257 5264 5271 5275 5278 5282 5287 5291 5294
5373 5370 5366 5363 5359 5356 5352 5349 5346 5343 5339 5336 5333 5330 5327 5327 5326 5323 5320 5318 5317 5315 5312 5310 5307 5305 5302 5299 5295 5292 5288 5283 5280 5277 5274 5271 5268 5265 5263 5260 5256 5253 5250 5246 5242 5239 5237 5233 5228 5222 5216 5210 5204 5198 5193 5189 5187 5186 5185 5185 5184 5185 5186 5187 5190 5194 5200 5206 5210 5213 5216 5221 5227 5231 5235 5238 5244 5252 5258 5261 5264 5269 5274 5277 5279
5366 5362 5359 5356 5353 5349 5346 5342 5339 5336 5333 5330 5327 5324 5321 5320 5320 5318 5315 5312 5310 5308 5306 5304 5301 5298 5295 5292 5288 5285 5282 5278 5274 5271 5267 5264 5261 5257 5254 5251 5248 5245 5242 5238 5234 5232 5228 5224 5219 5213 5207 5200 5194 5189 5183 5179 5176 5174 5173 5173 5173 5173 5174 5176 5178 5182 5188 5193 5196 5199 5202 5207 5213 5218 5222 5225 5231 5238 5243 5247 5252 5257 5260 5262 5266
5358 5355 5352 5349 5346 5343 5339 5336 5332 5329 5326 5324 5322 5320 5316 5313 5312 5312 5310 5307 5304 5301 5299 5297 5294 5290 5287 5284 5281 5278 5274 5271 5268 5264 5260 5257 5253 5250 5246 5242 5238 5235 5231 5228 5225 5222 5218 5213 5209 5202 5195 5189 5183 5178 5173 5169 5166 5164 5163 5162 5162 5163 5165 5166 5168 5172 5177 5180 5184 5187 5190 5194 5200 5205 5209 5213 5219 5225 5229 5234 5239 5243 5246 5250 5255
5351 5348 5345 5342 5339 5336 5333 5330 5326 5323 5320 5318 5316 5316 5314 5310 5306 5304 5303 5302 5299 5296 5293 5291 5288 5284 5281 5278 5275 5272 5268 5265 5262 5258 5254 5250 5247 5243 5238 5234 5230 5225 5222 5219 5216 5213 5209 5204 5199 5193 5186 5179 5173 5168 5164 5160 5157 5155 5154 5153 5154 5155 5156 5157 5160 5162 5166 5169 5173 5176 5179 5183 5188 5193 5197 5202 5208 5212 5216 5221 5225 5229 5233 5238 5243
5344 5341 5338 5336 5333 5330 5327 5323 5320 5317 5315 5312 5310 5309 5309 5307 5304 5300 5296 5294 5292 5291 5288 5286 5283 5279 5276 5272 5269 5266 5263 5259 5256 5252 5248 5244 5240 5236 5231 5226 5221 5216 5213 5211 5208 5205 5200 5196 5190 5184 5178 5172 5166 5161 5156 5152 5150 5148 5146 5146 5146 5147 5148 5150 5152 5154 5158 5161 5164 5166 5169 5173 5178 5183 5188 5193 5197 5201 5204 5209 5212 5216 5221 5226 5231
5336 5334 5332 5329 5327 5323 5320 5317 5314 5311 5309 5307 5305 5303 5302 5301 5300 5298 5294 5290 5286 5283 5281 5279 5278 5275 5271 5266 5263 5260 5256 5253 5249 5245 5241 5237 5232 5228 5224 5219 5213 5209 5206 5203 5201 5197 5193 5187 5182 5176 5170 5165 5160 5154 5150 5146 5143 5141 5140 5139 5140 5141 5142 5144 5145 5148 5151 5153 5155 5158 5162 5166 5170 5175 5179 5183 5187 5190 5194 5198 5201 5205 5209 5214 5220
5329 5327 5325 5323 5320 5317 5314 5311 5308 5306 5303 5301 5299 5298 5296 5295 5293 5292 5290 5288 5284 5279 5275 5272 5270 5269 5266 5261 5257 5253 5250 5246 5243 5239 5235 5231 5226 5221 5216 5211 5206 5201 5198 5196 5194 5191 5186 5181 5175 5169 5164 5158 5153 5149 5144 5141 5138 5136 5134 5134 5134 5135 5136 5137 5139 5141 5143 5145 5148 5152 5155 5159 5162 5166 5169 5173 5177 5180 5183 5187 5190 5194 5198 5204 5209
5323 5320 5318 5316 5314 5311 5308 5305 5302 5300 5298 5295 5294 5292 5291 5289 5287 5285 5284 5282 5279 5276 5272 5267 5263 5261 5259 5255 5251 5247 5243 5239 5235 5232 5228 5223 5219 5214 5209 5204 5199 5195 5191 5189 5187 5184 5180 5175 5169 5163 5158 5153 5148 5144 5140 5136 5134 5131 5130 5129 5129 5130 5130 5132 5133 5135 5137 5139 5143 5146 5149 5152 5155 5157 5159 5163 5167 5170 5173 5176 5180 5184 5188 5193 5197
5316 5314 5312 5309 5307 5304 5302 5299 5296 5294 5292 5290 5288 5287 5285 5284 5282 5280 5278 5276 5273 5270 5267 5264 5259 5255 5252 5249 5245 5240 5236 5232 5228 5224 5220 5215 5211 5207 5202 5197 5193 5190 5187 5183 5181 5177 5173 5169 5164 5158 5153 5148 5144 5140 5136 5132 5130 5128 5126 5125 5125 5125 5126 5127 5128 5130 5132 5135 5138 5141 5143 5146 5148 5150 5152 5155 5158 5161 5164 5167 5170 5173 5177 5181 5184
5310 5308 5305 5303 5301 5298 5295 5292 5290 5288 5286 5284 5283 5282 5280 5278 5276 5274 5272 5270 5267 5264 5262 5259 5256 5251 5247 5243 5239 5234 5230 5225 5220 5216 5212 5207 5202 5198 5194 5191 5187 5185 5182 5179 5176 5173 5168 5164 5159 5154 5149 5144 5141 5137 5133 5130 5127 5124 5123 5122 5121 5122 5122 5123 5124 5125 5127 5130 5133 5135 5138 5141 5143 5145 5146 5148 5150 5153 5155 5158 5160 5164 5167 5170 5172
5303 5301 5299 5297 5295 5292 5289 5286 5284 5282 5280 5278 5277 5276 5275 5273 5271 5269 5267 5264 5262 5259 5256 5253 5251 5248 5244 5239 5235 5230 5225 5220 5214 5209 5204 5200 5195 5191 5187 5184 5181 5179 5177 5174 5172 5169 5165 5160 5156 5151 5146 5142 5138 5134 5130 5127 5124 5122 5121 5120 5119 5119 5119 5120 5121 5122 5123 5125 5128 5130 5133 5136 5138 5139 5141 5142 5144 5146 5148 5150 5152 5155 5157 5160 5162
5297 5295 5293 5291 5288 5286 5283 5280 5278 5276 5274 5273 5272 5271 5270 5268 5266 5264 5262 5259 5256 5253 5251 5248 5245 5242 5239 5235 5231 5226 5222 5217 5212 5206 5200 5195 5190 5186 5182 5178 5176 5174 5172 5170 5167 5164 5161 5157 5152 5148 5144 5139 5135 5131 5128 5125 5122 5120 5118 5117 5117 5117 5117 5117 5118 5119 5120 5122 5123 5126 5128 5130 5132 5134 5135 5137 5138 5140 5141 5143 5145 5147 5149 5151 5154
5291 5288 5285 5283 5281 5278 5276 5273 5271 5270 5268 5267 5267 5266 5264 5263 5261 5259 5257 5254 5251 5248 5246 5243 5240 5237 5233 5229 5225 5221 5217 5212 5207 5202 5196 5191 5186 5182 5178 5175 5172 5169 5167 5165 5163 5160 5157 5153 5149 5145 5141 5137 5133 5129 5126 5123 5120 5118 5116 5115 5114 5113 5113 5114 5115 5116 5117 5118 5120 5121 5123 5125 5127 5128 5129 5131 5132 5133 5134 5136 5137 5139 5141 5143 5146
5284 5281 5278 5276 5273 5270 5268 5265 5264 5263 5262 5262 5261 5261 5259 5258 5257 5255 5252 5249 5246 5243 5240 5237 5234 5231 5227 5223 5219 5215 5210 5206 5202 5197 5192 5186 5182 5178 5174 5171 5168 5165 5163 5161 5158 5156 5153 5150 5146 5142 5139 5135 5131 5127 5123 5120 5118 5116 5113 5112 5111 5110 5110 5110 5111 5112 5113 5115 5116 5117 5118 5120 5121 5122 5123 5124 5125 5126 5127 5128 5130 5131 5133 5135 5138
5276 5274 5271 5268 5265 5262 5259 5257 5256 5256 5256 5256 5256 5255 5254 5253 5251 5249 5247 5244 5241 5239 5236 5232 5229 5225 5222 5218 5213 5209 5204 5200 5196 5192 5187 5182 5178 5174 5171 5168 5165 5162 5159 5157 5154 5152 5149 5146 5143 5140 5136 5132 5128 5125 5121 5118 5116 5114 5112 5110 5109 5108 5107 5107 5107 5107 5108 5109 5110 5111 5113 5113 5114 5115 5116 5117 5118 5119 5120 5121 5122 5124 5126 5128 5131
5269 5266 5263 5259 5256 5253 5251 5250 5249 5249 5250 5251 5251 5250 5249 5248 5246 5244 5242 5239 5237 5234 5231 5228 5224 5221 5217 5212 5208 5204 5200 5196 5192 5188 5184 5179 5175 5171 5167 5164 5161 5159 5156 5153 5151 5148 5146 5143 5140 5137 5134 5130 5126 5123 5119 5116 5114 5112 5110 5108 5107 5105 5104 5104 5103 5103 5103 5104 5105 5106 5107 5107 5108 5109 5109 5110 5111 5112 5113 5115 5116 5118 5120 5122 5125
5261 5258 5255 5251 5249 5246 5244 5243 5243 5244 5245 5246 5245 5245 5244 5243 5241 5239 5237 5235 5232 5230 5227 5224 5220 5216 5212 5208 5204 5200 5196 5192 5188 5184 5181 5177 5173 5169 5165 5161 5158 5155 5153 5150 5148 5145 5142 5140 5137 5134 5131 5128 5124 5121 5118 5115 5112 5110 5108 5107 5105 5104 5103 5102 5101 5100 5100 5099 5100 5100 5101 5102 5103 5104 5105 5105 5106 5107 5109 5110 5111 5113 5115 5118 5120
5253 5250 5247 5244 5242 5240 5239 5238 5239 5240 5241 5241 5241 5240 5239 5238 5236 5235 5232 5230 5228 5225 5223 5220 5216 5213 5208 5204 5200 5196 5193 5189 5185 5181 5178 5174 5171 5167 5163 5159 5156 5153 5150 5147 5145 5142 5139 5137 5134 5132 5129 5126 5122 5119 5116 5114 5111 5109 5107 5105 5104 5103 5102 5101 5099 5098 5098 5097 5096 5096 5097 5098 5099 5100 5101 5102 5103 5104 5105 5106 5108 5109 5111 5113 5116
5246 5243 5240 5238 5236 5234 5234 5234 5235 5236 5236 5236 5236 5236 5235 5233 5232 5230 5228 5226 5224 5221 5218 5216 5212 5209 5205 5201 5197 5193 5190 5186 5182 5179 5175 5172 5169 5165 5162 5158 5154 5150 5147 5145 5142 5139 5137 5134 5132 5129 5127 5124 5121 5118 5115 5113 5110 5108 5106 5104 5103 5101 5100 5099 5098 5098 5097 5096 5095 5095 5094 5094 5095 5096 5097 5098 5099 5101 5102 5103 5104 5106 5108 5110 5112
5238 5236 5234 5232 5230 5229 5229 5230 5231 5232 5232 5232 5232 5231 5230 5229 5227 5225 5224 5222 5220 5217 5215 5211 5208 5204 5201 5197 5194 5190 5187 5183 5180 5176 5173 5170 5166 5163 5160 5156 5153 5149 5145 5142 5140 5137 5135 5132 5130 5128 5125 5123 5120 5118 5115 5112 5110 5107 5105 5103 5101 5100 5099 5098 5097 5097 5096 5095 5095 5094 5094 5093 5093 5094 5094 5095 5096 5097 5098 5099 5101 5102 5104 5106 5108
5232 5229 5227 5226 5225 5225 5226 5227 5227 5228 5228 5228 5227 5227 5226 5224 5223 5221 5219 5218 5216 5213 5210 5207 5204 5201 5197 5194 5190 5187 5184 5181 5178 5174 5171 5167 5164 5161 5158 5155 5152 5148 5144 5141 5138 5135 5133 5130 5128 5126 5124 5121 5119 5117 5114 5112 5109 5107 5105 5103 5101 5099 5098 5096 5095 5095 5094 5094 5093 5093 5093 5092 5092 5092 5093 5093 5094 5094 5095 5096 5098 5099 5101 5103 5105
5225 5223 5222 5221 5221 5222 5223 5223 5224 5224 5224 5223 5223 5222 5221 5220 5218 5217 5215 5214 5212 5209 5206 5203 5200 5196 5193 5190 5187 5184 5181 5178 5175 5172 5168 5165 5162 5159 5156 5154 5150 5147 5143 5140 5137 5134 5131 5129 5127 5124 5122 5120 5118 5116 5113 5111 5109 5106 5104 5102 5100 5099 5097 5096 5094 5094 5093 5092 5092 5091 5091 5091 5091 5091 5091 5092 5092 5093 5094 5095 5096 5098 5099 5101 5102
5220 5218 5217 5217 5218 5219 5220 5220 5220 5220 5220 5219 5219 5218 5217 5216 5214 5213 5211 5210 5207 5205 5202 5199 5196 5193 5190 5187 5184 5181 5178 5175 5172 5169 5166 5163 5160 5157 5154 5151 5149 5146 5143 5140 5136 5133 5131 5128 5126 5124 5121 5119 5117 5115 5112 5110 5108 5106 5104 5102 5100 5098 5097 5095 5094 5093 5092 5091 5091 5090 5090 5089 5089 5089 5090 5090 5091 5092 5093 5093 5095 5096 5097 5098 5099
5214 5213 5213 5214 5215 5216 5216 5217 5217 5216 5216 5215 5215 5214 5213 5211 5210 5209 5207 5205 5203 5201 5198 5195 5192 5189 5186 5183 5180 5178 5176 5173 5170 5167 5164 5161 5158 5155 5152 5149 5147 5144 5142 5139 5136 5133 5130 5128 5125 5123 5121 5118 5116 5114 5112 5110 5108 5106 5104 5102 5100 5098 5097 5095 5094 5093 5091 5091 5090 5089 5089 5088 5088 5088 5088 5089 5090 5090 5091 5092 5093 5094 5095 5096 5097